Precipitable_Water
0.97 0.98 0.85 0.78 0.86 0.77 0.70 0.76 0.79 0.79 0.77 0.84 0.88 0.93 0.93 0.98 0.99 1.00 0.99 1.01 1.03 1.04 1.05 1.06 1.08 1.08 1.10 1.10 1.10 1.09 1.09 1.09 1.12 1.15 1.14 1.16 1.17 1.15 1.13 1.13 1.11 1.10
1.00 0.96 0.87 0.77 0.76 0.79 0.79 0.82 0.84 0.80 0.80 0.86 0.92 0.95 0.98 0.95 0.98 1.00 1.01 0.99 1.02 1.02 1.03 1.05 1.06 1.06 1.08 1.07 1.09 1.09 1.10 1.11 1.09 1.14 1.13 1.13 1.13 1.12 1.10 1.10 1.08 1.10
1.00 0.92 0.90 0.84 0.85 0.89 0.87 0.81 0.79 0.80 0.86 0.89 0.92 0.94 0.98 1.02 1.02 1.02 1.00 1.00 0.99 1.02 1.04 1.04 1.05 1.08 1.09 1.09 1.09 1.10 1.10 1.09 1.09 1.14 1.14 1.12 1.11 1.10 1.11 1.13 1.14 1.15
1.05 0.98 0.90 0.88 0.83 0.75 0.77 0.75 0.79 0.86 0.88 0.90 0.92 0.95 0.94 0.96 0.97 1.00 1.02 1.02 1.01 1.02 1.03 1.04 1.07 1.07 1.07 1.08 1.08 1.08 1.10 1.11 1.14 1.16 1.15 1.13 1.12 1.09 1.07 1.09 1.12 1.12
1.06 1.01 0.91 0.87 0.87 0.86 0.82 0.77 0.76 0.81 0.85 0.85 0.86 0.93 0.94 0.95 0.97 0.98 1.00 1.02 1.03 1.01 1.02 1.04 1.05 1.02 1.02 1.02 1.04 1.02 1.06 1.10 1.15 1.15 1.11 1.11 1.12 1.07 1.05 1.04 1.04 1.04
1.04 0.97 0.94 0.91 0.87 0.83 0.79 0.81 0.83 0.82 0.84 0.87 0.86 0.88 0.90 0.91 0.92 0.94 0.95 0.96 0.98 1.00 1.00 1.01 1.02 1.03 1.04 1.04 1.05 1.06 1.07 1.08 1.13 1.12 1.09 1.07 1.06 1.09 1.07 1.03 1.00 0.98
1.01 0.93 0.90 0.93 0.91 0.89 0.83 0.81 0.84 0.88 0.87 0.89 0.97 0.97 0.96 0.95 0.93 0.94 0.96 0.95 0.95 0.96 0.98 1.00 1.02 1.06 1.13 1.14 1.14 1.15 1.15 1.12 1.12 1.13 1.08 1.07 1.10 1.11 1.10 1.02 0.98 0.94
1.08 1.04 1.01 0.99 0.97 0.95 0.90 0.86 0.88 0.90 0.96 0.96 0.94 1.02 1.03 1.03 1.04 1.02 1.02 1.02 0.99 0.98 0.97 0.97 1.01 1.09 1.17 1.20 1.20 1.22 1.24 1.22 1.16 1.16 1.10 1.07 1.11 1.10 1.03 1.01 0.99 0.92
1.14 1.09 1.06 1.03 1.00 1.00 0.94 0.90 0.95 0.99 1.00 0.97 0.99 0.96 1.03 1.06 1.05 1.07 1.07 1.06 1.03 1.01 1.00 1.00 1.01 1.03 1.12 1.18 1.19 1.20 1.21 1.20 1.22 1.19 1.12 1.09 1.07 1.07 1.02 1.00 0.96 0.90
1.12 1.07 1.05 1.02 1.00 0.99 0.95 0.92 0.90 0.87 0.94 0.97 1.01 1.05 0.99 0.99 1.03 1.05 1.05 1.02 1.00 1.00 0.98 0.98 1.01 1.04 1.08 1.10 1.07 1.06 1.11 1.13 1.13 1.18 1.20 1.19 1.14 1.07 1.00 0.97 0.94 0.88
1.17 1.10 1.04 1.01 0.98 0.98 0.96 0.94 0.93 0.91 0.97 0.92 0.92 0.96 1.00 1.02 1.04 1.04 0.98 0.98 1.01 0.99 0.96 0.95 0.99 1.06 1.09 1.10 1.09 1.10 1.11 1.07 1.04 1.05 1.09 1.13 1.15 1.10 1.03 0.99 0.96 0.91
1.16 1.12 1.09 1.09 1.07 1.03 0.99 0.94 0.91 0.88 0.89 0.96 0.97 0.98 1.02 1.04 1.01 0.97 0.96 1.00 1.00 0.98 0.96 0.96 1.00 1.06 1.13 1.15 1.12 1.11 1.08 1.04 0.98 0.96 0.98 1.04 1.11 1.12 1.07 1.01 0.96 0.91
1.17 1.13 1.10 1.08 1.07 1.02 0.98 0.93 0.93 0.93 0.94 0.97 1.00 0.98 0.95 0.94 0.95 0.95 0.98 0.95 0.96 0.98 0.98 0.99 1.01 1.03 1.09 1.15 1.16 1.14 1.10 1.05 1.03 1.03 1.05 1.06 1.09 1.07 1.03 1.00 0.95 0.91
1.13 1.16 1.14 1.10 1.08 1.05 0.99 0.95 0.90 0.87 0.87 0.90 0.94 0.94 0.99 0.96 0.92 0.92 0.94 0.94 0.93 0.92 0.93 0.98 1.02 1.05 1.11 1.18 1.19 1.18 1.14 1.11 1.10 1.09 1.07 1.06 1.04 1.01 0.98 0.94 0.91 0.91
1.06 1.08 1.10 1.10 1.05 0.99 0.95 0.90 0.88 0.91 0.94 0.97 1.01 0.99 1.00 0.99 0.96 0.94 0.94 0.92 0.93 0.95 0.98 1.02 1.02 1.06 1.14 1.23 1.27 1.25 1.21 1.16 1.11 1.03 0.99 0.97 0.94 0.92 0.91 0.90 0.91 0.90
1.01 1.03 1.05 1.05 1.01 0.96 0.93 0.89 0.88 0.92 0.95 0.98 1.01 1.03 1.02 1.00 0.97 0.95 0.93 0.93 0.92 0.94 0.96 0.98 1.01 1.09 1.12 1.20 1.25 1.20 1.17 1.11 1.03 0.99 0.95 0.92 0.91 0.90 0.89 0.90 0.92 0.95
1.03 1.01 1.01 0.99 0.97 0.95 0.92 0.88 0.88 0.92 0.96 1.01 1.04 1.06 1.03 0.99 0.96 0.93 0.91 0.90 0.90 0.92 0.95 1.00 1.04 1.06 1.08 1.09 1.11 1.12 1.12 1.08 1.03 0.99 0.98 0.97 0.95 0.93 0.92 0.92 0.95 0.98
1.04 1.02 1.00 0.99 0.97 0.94 0.90 0.91 0.94 0.96 0.99 1.03 1.07 1.09 1.10 1.06 0.97 0.93 0.92 0.93 0.93 0.94 0.96 0.99 1.01 1.00 0.97 0.98 1.00 1.03 1.07 1.07 1.03 1.00 1.00 1.00 0.98 0.96 0.98 0.97 0.98 1.02
1.01 1.00 0.98 0.96 0.95 0.93 0.94 0.96 0.98 1.01 1.03 1.06 1.09 1.15 1.14 1.03 0.95 0.93 0.91 0.92 0.93 0.94 0.92 0.93 0.92 0.94 0.92 0.92 0.94 0.98 1.03 1.05 1.04 1.03 1.03 1.03 1.04 1.05 1.03 1.03 1.04 1.08
0.98 0.95 0.92 0.92 0.92 0.94 0.97 0.99 1.01 1.03 1.08 1.13 1.14 1.16 1.12 1.04 0.98 0.92 0.92 0.93 0.97 0.96 0.94 0.93 0.91 0.91 0.91 0.92 0.93 0.97 1.00 1.03 1.05 1.07 1.08 1.09 1.09 1.08 1.10 1.11 1.11 1.14
0.99 0.95 0.92 0.92 0.94 0.97 0.98 0.98 1.02 1.07 1.11 1.13 1.17 1.22 1.16 1.04 0.98 0.96 0.95 0.95 0.98 0.97 0.93 0.94 0.95 0.95 0.95 0.94 0.94 0.95 0.97 1.01 1.04 1.07 1.10 1.13 1.12 1.10 1.09 1.09 1.11 1.20
0.98 0.97 0.96 0.97 0.99 0.99 0.97 0.99 1.06 1.14 1.16 1.19 1.20 1.26 1.22 1.07 0.99 0.99 0.97 0.96 0.99 1.01 0.97 0.95 0.96 0.97 0.95 0.94 0.95 0.96 1.00 1.01 1.02 1.05 1.08 1.12 1.12 1.09 1.07 1.08 1.09 1.09
0.99 1.00 1.04 1.05 1.03 0.99 0.99 1.03 1.08 1.11 1.12 1.18 1.22 1.25 1.16 1.05 1.00 1.01 1.01 0.98 0.96 0.97 0.96 0.98 1.05 1.09 1.03 0.99 1.00 1.02 1.01 0.99 1.01 1.06 1.10 1.11 1.10 1.11 1.10 1.09 1.09 1.11
1.01 1.01 1.02 1.03 1.02 0.99 1.00 1.05 1.08 1.10 1.12 1.19 1.23 1.22 1.13 1.05 1.04 1.03 1.03 1.03 1.02 0.99 0.98 0.99 1.04 1.05 1.02 1.03 1.05 1.07 1.04 1.00 1.01 1.03 1.04 1.06 1.07 1.10 1.11 1.09 1.10 1.10
1.03 1.01 0.99 0.99 1.00 1.03 1.06 1.06 1.06 1.07 1.11 1.17 1.17 1.14 1.11 1.08 1.07 1.03 1.00 0.99 1.00 0.98 0.99 1.01 1.03 1.06 1.09 1.10 1.12 1.13 1.08 1.04 1.02 1.02 1.02 1.04 1.08 1.07 1.06 1.08 1.10 1.10
1.05 1.04 1.02 1.01 1.03 1.07 1.10 1.10 1.10 1.09 1.10 1.12 1.15 1.16 1.10 1.10 1.09 1.02 0.96 0.95 0.99 0.99 1.03 1.17 1.15 1.16 1.16 1.15 1.16 1.12 1.06 1.03 1.05 1.04 1.04 1.06 1.08 1.07 1.04 1.02 1.01 1.00
Wind_Speed
15 16 17 17 17 17 18 18 18 19 19 20 20 20 21 21 21 21 22 22 22 22 22 22 22 23 23 23 23 23 23 24 24 24 24 24 24 24 25 25 26 26
16 16 17 18 18 18 18 19 19 20 20 20 21 21 21 21 21 21 22 22 22 22 23 23 23 23 23 23 24 24 24 24 24 24 24 24 24 25 25 26 26 26
17 17 18 18 18 18 19 19 20 20 21 21 21 21 21 21 22 22 22 22 23 23 23 24 24 24 24 24 24 24 25 25 25 25 25 25 25 25 26 27 27 27
17 18 19 19 20 20 20 21 21 21 21 21 22 22 22 22 22 23 23 23 23 24 24 24 24 24 25 25 25 25 25 25 25 25 25 26 26 26 27 27 28 28
18 19 20 20 21 21 21 21 21 21 22 22 22 22 22 23 23 23 24 24 24 24 24 25 25 25 26 26 25 26 26 26 26 26 27 27 27 28 28 28 29 29
19 20 20 21 21 22 22 22 22 22 22 23 23 23 23 23 24 24 24 24 25 25 25 25 26 26 26 26 26 26 26 26 27 27 28 28 29 29 29 29 30 30
19 20 21 22 22 22 23 23 23 23 23 23 23 23 23 24 24 24 25 25 25 26 26 26 27 27 27 27 27 27 27 27 27 28 29 30 30 30 30 30 30 30
19 20 21 22 22 23 23 23 24 24 24 24 23 22 23 23 24 25 25 26 26 27 27 27 27 27 27 27 27 27 27 28 28 28 30 30 30 30 30 30 30 30
20 21 21 22 23 23 24 24 25 25 25 24 23 23 23 23 24 25 26 26 27 28 28 28 28 28 28 28 28 28 28 28 29 29 30 31 31 31 31 30 30 31
20 21 22 22 23 24 24 25 25 25 25 24 24 24 24 25 25 26 26 27 27 28 28 28 28 28 28 28 29 29 29 29 30 31 31 31 31 32 31 31 31 31
21 22 22 23 24 24 25 25 25 25 24 24 25 25 25 25 26 26 27 27 27 28 28 28 29 29 29 29 29 29 30 30 31 31 31 31 31 31 31 30 30 30
21 22 23 23 24 24 25 25 25 25 25 25 25 25 26 26 27 27 27 28 28 28 28 29 29 29 29 29 29 29 30 31 31 32 31 31 31 31 30 30 29 28
22 22 23 24 24 25 25 25 25 25 25 26 26 27 27 27 27 27 27 28 28 28 29 29 29 29 29 29 30 30 30 30 31 31 31 31 31 30 30 29 28 28
22 23 23 24 25 25 25 25 25 25 25 26 26 27 27 27 27 27 28 28 29 29 29 29 29 29 29 30 30 30 30 30 30 31 31 31 31 30 29 29 28 27
22 23 23 24 25 25 25 25 25 25 26 26 26 26 27 27 27 28 28 29 29 29 29 29 29 29 29 29 30 30 30 30 30 31 31 31 30 30 29 29 28 27
23 23 23 24 25 25 25 25 25 25 26 26 26 27 27 27 27 28 28 28 28 29 29 29 29 29 29 29 30 30 30 31 31 30 30 30 29 28 28 28 28 28
23 23 24 24 25 24 25 25 25 25 26 26 26 27 27 27 28 28 28 28 28 29 29 29 29 29 29 30 30 31 31 31 31 30 29 29 28 28 28 27 27 27
23 24 24 24 24 24 25 25 25 26 26 26 27 27 27 28 28 29 29 29 29 29 29 29 30 30 30 31 31 31 31 30 30 29 29 28 27 27 27 27 26 26
23 24 24 24 24 25 25 25 25 26 26 26 27 27 28 28 29 29 30 30 29 29 30 30 31 31 31 31 31 31 31 30 29 29 28 27 27 26 26 26 26 25
23 23 24 24 24 24 24 25 25 26 27 27 28 28 28 29 29 29 30 30 29 29 30 30 31 31 31 31 31 31 31 30 29 28 27 26 25 25 25 25 25 25
23 23 24 24 23 24 25 25 26 27 27 28 28 28 28 29 29 30 30 30 29 29 30 30 31 31 30 31 31 31 30 29 27 27 26 25 25 25 25 24 24 24
23 24 23 23 23 24 25 26 27 27 28 29 30 29 29 29 30 30 30 30 30 30 30 31 31 31 30 31 31 30 29 28 27 26 25 24 24 24 24 24 24 24
24 23 23 23 24 25 26 26 27 28 29 30 30 30 29 29 30 30 30 30 30 31 31 31 31 31 30 31 30 29 28 27 26 24 23 23 23 23 23 24 24 24
24 24 23 24 25 26 26 27 28 29 29 30 30 29 29 30 30 31 31 31 31 32 32 31 31 31 30 30 29 28 28 26 25 23 23 23 22 22 23 23 23 23
24 24 24 25 25 26 27 28 29 29 29 30 30 29 30 30 31 32 32 31 32 33 33 32 31 30 29 28 27 27 27 26 24 23 22 22 22 23 23 23 23 23
24 24 25 25 26 27 28 29 29 29 30 30 30 30 30 30 31 32 32 33 33 33 32 31 29 29 27 26 26 27 26 24 22 21 21 21 22 22 23 23 23 23
Wind_Direction
319 321 321 321 319 317 317 316 315 315 315 315 315 314 313 313 314 314 313 313 312 312 311 311 312 312 313 313 314 314 314 314 313 314 314 312 311 310 308 307 306 304
317 319 320 321 320 318 317 316 315 315 315 316 315 314 313 313 313 313 313 312 311 311 311 310 311 311 312 312 312 313 313 313 312 312 312 311 311 309 308 307 306 305
314 317 318 319 319 317 316 316 315 315 315 315 315 314 313 313 312 312 312 312 311 310 310 310 310 310 310 311 311 311 311 311 311 311 311 310 310 309 307 306 306 305
310 314 316 317 317 317 316 316 316 315 314 314 314 313 313 312 312 312 312 311 310 309 309 309 308 308 308 308 309 309 309 310 310 309 309 309 309 308 307 305 304 304
308 311 313 315 316 316 316 316 316 315 314 314 313 312 312 312 312 312 312 310 309 309 308 307 307 306 306 307 307 308 308 308 309 308 308 308 308 307 307 305 303 302
306 308 311 313 315 315 316 316 315 315 314 314 313 312 312 313 313 313 312 311 310 309 308 307 307 307 307 307 307 307 307 308 308 308 307 307 306 306 306 305 304 302
303 306 309 311 313 314 315 315 315 314 314 313 313 312 313 312 312 312 312 311 311 309 308 307 307 307 307 307 307 307 307 308 307 307 307 306 306 305 305 305 304 303
300 304 306 309 311 312 313 313 313 312 312 312 312 312 312 312 311 311 311 311 311 310 309 308 307 307 307 307 307 307 307 307 307 306 306 305 305 304 304 304 303 303
298 301 304 306 309 311 311 312 312 312 311 311 312 313 313 312 312 311 310 311 311 310 310 309 308 307 307 306 305 305 306 306 306 306 305 304 304 303 303 303 302 302
297 301 302 304 307 309 310 311 312 313 314 313 313 313 313 313 312 311 310 310 310 310 310 309 308 307 307 306 305 304 304 305 305 305 304 303 303 302 302 302 302 302
296 299 301 303 307 308 309 310 312 313 314 314 314 313 313 312 311 311 311 310 310 310 310 309 308 307 307 307 306 305 304 304 304 304 303 302 302 302 302 302 301 301
294 298 300 302 305 307 308 310 311 312 312 313 314 313 312 311 311 311 311 311 311 311 310 309 309 308 307 306 306 305 305 305 305 304 303 303 302 301 301 301 300 300
294 296 299 302 305 306 308 309 310 311 312 313 313 312 311 311 311 311 311 311 312 311 311 310 310 309 307 305 305 306 305 304 304 304 304 303 302 301 300 299 298 299
294 297 300 303 305 306 307 308 309 310 311 312 312 311 311 311 311 311 311 311 312 311 311 311 311 310 308 306 306 306 305 305 305 304 304 303 302 301 300 298 298 298
294 298 300 302 304 304 305 306 308 309 310 311 311 311 311 311 310 311 311 311 311 312 312 312 311 310 309 307 307 307 306 306 306 305 305 304 303 302 300 299 298 297
294 297 300 302 303 303 304 305 308 309 309 309 309 310 311 311 311 312 311 311 312 312 312 312 311 310 309 308 307 307 307 306 306 305 305 305 304 302 301 299 298 297
293 296 299 300 301 302 303 306 307 308 308 308 308 309 310 311 312 312 312 311 311 312 312 311 310 309 309 308 307 307 307 306 306 305 304 305 304 303 302 301 299 298
293 296 298 299 300 301 303 305 306 307 307 307 307 309 310 311 312 313 312 311 311 311 311 310 310 309 308 308 307 306 305 306 306 304 303 304 303 304 304 303 301 300
292 295 297 299 299 300 302 304 305 305 306 307 308 310 310 311 312 313 312 312 311 311 310 310 309 309 309 308 307 306 305 305 305 304 303 303 302 303 305 304 303 302
292 293 296 298 298 299 301 303 303 304 305 306 308 310 310 311 311 312 312 312 311 311 310 310 310 310 310 308 307 307 306 305 304 303 301 301 301 303 305 305 305 305
291 292 294 296 297 299 301 302 303 304 305 306 307 308 309 310 311 311 312 311 310 310 310 310 311 312 311 309 308 308 306 305 303 302 300 299 300 302 304 306 307 307
291 292 293 294 296 298 300 302 303 303 304 306 306 305 306 308 309 310 311 310 310 310 309 309 310 311 311 311 310 309 307 305 303 301 299 298 299 302 303 306 308 308
291 291 292 293 295 298 299 301 303 303 304 306 305 304 305 307 309 309 309 309 309 309 309 308 309 310 311 311 311 310 309 306 303 301 298 297 299 300 302 305 307 307
289 289 290 292 295 297 299 300 302 303 304 306 305 304 304 307 308 309 309 308 308 309 308 307 307 309 310 311 310 310 309 306 303 300 298 297 298 300 302 304 306 307
288 289 290 293 295 297 298 300 302 303 304 306 305 304 304 306 307 308 308 307 307 308 307 306 306 308 310 310 310 311 310 306 301 299 297 297 298 299 301 303 305 307
287 289 291 293 296 297 298 300 301 302 303 304 304 303 304 306 307 307 307 307 307 308 308 306 306 308 309 309 310 312 311 306 301 298 298 298 298 299 301 302 304 308